This demonstration page uses our WeatherBlox Daily Observations layout. Learn more.

Left ArrowRight Arrow

Hourly Observations for December 26, 2016

Temp ( °F °C ) Dew Point ( °F °C ) Humidity (%) Winds ( mph kmh ) Pressure ( in mb ) Visibility ( mi km ) Precip ( " mm )
12:51 am 00:51 Clear 31 -0.6 29 -1.7 92 92 Calm 30.17 1022 10 16 0.00 0.00
1:51 am 01:51 Clear 31 -0.6 28 -2.2 89 89 VRB 3 6 30.18 1022 10 16 0.00 0.00
2:51 am 02:51 Clear 30 -1.1 28 -2.2 92 92 Calm 30.19 1022 10 16 0.00 0.00
3:51 am 03:51 Clear 31 -0.6 29 -1.7 92 92 Calm 30.20 1023 10 16 0.00 0.00
4:51 am 04:51 Clear 30 -1.1 27 -2.8 88 88 SE 3 6 30.20 1023 10 16 0.00 0.00
5:51 am 05:51 Clear 29 -1.7 27 -2.8 92 92 Calm 30.22 1024 10 16 0.00 0.00
6:51 am 06:51 Clear 30 -1.1 27 -2.8 88 88 Calm 30.24 1024 10 16 0.00 0.00
7:51 am 07:51 Sunny 31 -0.6 28 -2.2 89 89 E 6 9 30.28 1025 10 16 0.00 0.00
8:51 am 08:51 Sunny 36 2.2 29 -1.7 76 76 SE 10 17 30.29 1026 10 16 0.00 0.00
9:51 am 09:51 Sunny 41 5 28 -2.2 60 60 ESE 12 19 30.31 1026 10 16 0.00 0.00
10:51 am 10:51 Sunny 44 6.7 29 -1.7 55 55 ESE 8 13 30.31 1026 10 16 0.00 0.00
11:51 am 11:51 Sunny 47 8.3 31 -0.6 54 54 SE 8 13 30.28 1025 10 16 0.00 0.00
12:51 pm 12:51 Sunny 49 9.4 30 -1.1 48 48 SSE 6 9 30.25 1024 10 16 0.00 0.00
1:51 pm 13:51 Sunny 51 10.6 31 -0.6 46 46 ESE 5 7 30.22 1023 10 16 0.00 0.00
2:51 pm 14:51 Sunny 53 11.7 31 -0.6 43 43 S 7 11 30.21 1023 10 16 0.00 0.00
3:51 pm 15:51 Sunny 53 11.7 31 -0.6 43 43 S 7 11 30.21 1023 10 16 0.00 0.00
4:51 pm 16:51 Sunny 52 11.1 33 0.6 49 49 S 7 11 30.23 1024 10 16 0.00 0.00
5:51 pm 17:51 Clear 47 8.3 35 1.7 63 63 ENE 5 7 30.25 1025 10 16 0.00 0.00
6:51 pm 18:51 Clear 43 6.1 36 2.2 76 76 E 7 11 30.27 1025 10 16 0.00 0.00
7:51 pm 19:51 Clear 43 6.1 35 1.7 74 74 E 8 13 30.28 1025 10 16 0.00 0.00
8:51 pm 20:51 Clear 43 6.1 34 1.1 71 71 E 8 13 30.28 1025 10 16 0.00 0.00
9:51 pm 21:51 Clear 41 5 34 1.1 76 76 ESE 8 13 30.29 1026 10 16 0.00 0.00
10:51 pm 22:51 Clear with Light Rain 42 5.6 34 1.1 73 73 ESE 8 13 30.29 1026 10 16 0.00 0.03
11:51 pm 23:51 Clear 43 6.1 33 0.6 68 68 SE 10 17 30.28 1025 10 16 0.02 0.51

Powered by AerisWeather